owner,sensor,date,latitude,longitude,air_temperature,qcFlag 
COMPS,ioos:station:USF.COMPS:FHP:1,2019-06-01T00:54:00,28.1530,-82.8010,28.37,11111222 
COMPS,ioos:station:USF.COMPS:FHP:1,2019-06-01T01:54:00,28.1530,-82.8010,28.33,11111222 
COMPS,ioos:station:USF.COMPS:FHP:1,2019-06-01T02:54:00,28.1530,-82.8010,28.37,11111222 
COMPS,ioos:station:USF.COMPS:FHP:1,2019-06-01T03:54:00,28.1530,-82.8010,28.23,11111222 
COMPS,ioos:station:USF.COMPS:FHP:1,2019-06-01T04:54:00,28.1530,-82.8010,28.23,11111222 
COMPS,ioos:station:USF.COMPS:FHP:1,2019-06-01T05:54:00,28.1530,-82.8010,28.08,11111222 
COMPS,ioos:station:USF.COMPS:FHP:1,2019-06-01T06:54:00,28.1530,-82.8010,28.02,11111222 
COMPS,ioos:station:USF.COMPS:FHP:1,2019-06-01T07:54:00,28.1530,-82.8010,27.92,11111222 
COMPS,ioos:station:USF.COMPS:FHP:1,2019-06-01T08:54:00,28.1530,-82.8010,27.83,11111222 
COMPS,ioos:station:USF.COMPS:FHP:1,2019-06-01T09:54:00,28.1530,-82.8010,27.78,11111222 
COMPS,ioos:station:USF.COMPS:FHP:1,2019-06-01T10:54:00,28.1530,-82.8010,27.82,11111222 
COMPS,ioos:station:USF.COMPS:FHP:1,2019-06-01T11:54:00,28.1530,-82.8010,28.12,11111222 
COMPS,ioos:station:USF.COMPS:FHP:1,2019-06-01T12:54:00,28.1530,-82.8010,28.37,11111222 
COMPS,ioos:station:USF.COMPS:FHP:1,2019-06-01T13:54:00,28.1530,-82.8010,28.98,11111222 
COMPS,ioos:station:USF.COMPS:FHP:1,2019-06-01T14:54:00,28.1530,-82.8010,29.45,11111222 
COMPS,ioos:station:USF.COMPS:FHP:1,2019-06-01T15:54:00,28.1530,-82.8010,28.9,11111222 
COMPS,ioos:station:USF.COMPS:FHP:1,2019-06-01T16:54:00,28.1530,-82.8010,28.8,11111222 
COMPS,ioos:station:USF.COMPS:FHP:1,2019-06-01T17:54:00,28.1530,-82.8010,29.33,11111222 
COMPS,ioos:station:USF.COMPS:FHP:1,2019-06-01T18:54:00,28.1530,-82.8010,28.96,11111222 
COMPS,ioos:station:USF.COMPS:FHP:1,2019-06-01T19:54:00,28.1530,-82.8010,28.77,11111222 
COMPS,ioos:station:USF.COMPS:FHP:1,2019-06-01T20:54:00,28.1530,-82.8010,28.93,11111222 
COMPS,ioos:station:USF.COMPS:FHP:1,2019-06-01T21:54:00,28.1530,-82.8010,28.8,11111222 
COMPS,ioos:station:USF.COMPS:FHP:1,2019-06-01T22:54:00,28.1530,-82.8010,29.08,11111222 
COMPS,ioos:station:USF.COMPS:FHP:1,2019-06-01T23:54:00,28.1530,-82.8010,28.61,11111222 
COMPS,ioos:station:USF.COMPS:FHP:1,2019-06-02T00:54:00,28.1530,-82.8010,28.35,11111222 
COMPS,ioos:station:USF.COMPS:FHP:1,2019-06-02T01:54:00,28.1530,-82.8010,28.37,11111222 
COMPS,ioos:station:USF.COMPS:FHP:1,2019-06-02T02:54:00,28.1530,-82.8010,28.45,11111222 
COMPS,ioos:station:USF.COMPS:FHP:1,2019-06-02T03:54:00,28.1530,-82.8010,28.33,11111222 
COMPS,ioos:station:USF.COMPS:FHP:1,2019-06-02T04:54:00,28.1530,-82.8010,28.21,11111222 
COMPS,ioos:station:USF.COMPS:FHP:1,2019-06-02T05:54:00,28.1530,-82.8010,28.16,11111222 
COMPS,ioos:station:USF.COMPS:FHP:1,2019-06-02T06:54:00,28.1530,-82.8010,28.06,11111222 
COMPS,ioos:station:USF.COMPS:FHP:1,2019-06-02T07:54:00,28.1530,-82.8010,27.98,11111222 
COMPS,ioos:station:USF.COMPS:FHP:1,2019-06-02T08:54:00,28.1530,-82.8010,27.91,11111222 
COMPS,ioos:station:USF.COMPS:FHP:1,2019-06-02T09:54:00,28.1530,-82.8010,27.88,11111222 
COMPS,ioos:station:USF.COMPS:FHP:1,2019-06-02T10:54:00,28.1530,-82.8010,27.96,11111222 
COMPS,ioos:station:USF.COMPS:FHP:1,2019-06-02T11:54:00,28.1530,-82.8010,28.22,11111222 
COMPS,ioos:station:USF.COMPS:FHP:1,2019-06-02T12:54:00,28.1530,-82.8010,28.35,11111222 
COMPS,ioos:station:USF.COMPS:FHP:1,2019-06-02T13:54:00,28.1530,-82.8010,28.6,11111222 
COMPS,ioos:station:USF.COMPS:FHP:1,2019-06-02T14:54:00,28.1530,-82.8010,28.6,11111222 
COMPS,ioos:station:USF.COMPS:FHP:1,2019-06-02T15:54:00,28.1530,-82.8010,28.54,11111222 
COMPS,ioos:station:USF.COMPS:FHP:1,2019-06-02T16:54:00,28.1530,-82.8010,28.7,11111222 
COMPS,ioos:station:USF.COMPS:FHP:1,2019-06-02T17:54:00,28.1530,-82.8010,28.95,11111222 
COMPS,ioos:station:USF.COMPS:FHP:1,2019-06-02T18:54:00,28.1530,-82.8010,29.02,11111222 
COMPS,ioos:station:USF.COMPS:FHP:1,2019-06-02T19:54:00,28.1530,-82.8010,29.21,11111222 
COMPS,ioos:station:USF.COMPS:FHP:1,2019-06-02T20:54:00,28.1530,-82.8010,29.36,11111222 
COMPS,ioos:station:USF.COMPS:FHP:1,2019-06-02T21:54:00,28.1530,-82.8010,29.53,11111222 
COMPS,ioos:station:USF.COMPS:FHP:1,2019-06-02T22:54:00,28.1530,-82.8010,29.54,11111222 
COMPS,ioos:station:USF.COMPS:FHP:1,2019-06-02T23:54:00,28.1530,-82.8010,28.94,11111222 
COMPS,ioos:station:USF.COMPS:FHP:1,2019-06-03T00:54:00,28.1530,-82.8010,28.53,11111222 
COMPS,ioos:station:USF.COMPS:FHP:1,2019-06-03T01:54:00,28.1530,-82.8010,28.47,11111222 
COMPS,ioos:station:USF.COMPS:FHP:1,2019-06-03T02:54:00,28.1530,-82.8010,28.59,11111222 
COMPS,ioos:station:USF.COMPS:FHP:1,2019-06-03T03:54:00,28.1530,-82.8010,28.44,11111222 
COMPS,ioos:station:USF.COMPS:FHP:1,2019-06-03T04:54:00,28.1530,-82.8010,28.35,11111222 
COMPS,ioos:station:USF.COMPS:FHP:1,2019-06-03T05:54:00,28.1530,-82.8010,28.36,11111222 
COMPS,ioos:station:USF.COMPS:FHP:1,2019-06-03T06:54:00,28.1530,-82.8010,28.26,11111222 
COMPS,ioos:station:USF.COMPS:FHP:1,2019-06-03T07:54:00,28.1530,-82.8010,28.07,11111222 
COMPS,ioos:station:USF.COMPS:FHP:1,2019-06-03T08:54:00,28.1530,-82.8010,28.13,11111222 
COMPS,ioos:station:USF.COMPS:FHP:1,2019-06-03T09:54:00,28.1530,-82.8010,28.07,11111222 
COMPS,ioos:station:USF.COMPS:FHP:1,2019-06-03T10:54:00,28.1530,-82.8010,28.24,11111222 
COMPS,ioos:station:USF.COMPS:FHP:1,2019-06-03T11:54:00,28.1530,-82.8010,28.62,11111222 
COMPS,ioos:station:USF.COMPS:FHP:1,2019-06-03T12:54:00,28.1530,-82.8010,28.61,11111222 
COMPS,ioos:station:USF.COMPS:FHP:1,2019-06-03T13:54:00,28.1530,-82.8010,29.59,11111222 
COMPS,ioos:station:USF.COMPS:FHP:1,2019-06-03T14:54:00,28.1530,-82.8010,29.05,11111222 
COMPS,ioos:station:USF.COMPS:FHP:1,2019-06-03T15:54:00,28.1530,-82.8010,29.55,11111222 
COMPS,ioos:station:USF.COMPS:FHP:1,2019-06-03T16:54:00,28.1530,-82.8010,29.25,11111222 
COMPS,ioos:station:USF.COMPS:FHP:1,2019-06-03T17:54:00,28.1530,-82.8010,29.48,11111222 
COMPS,ioos:station:USF.COMPS:FHP:1,2019-06-03T18:54:00,28.1530,-82.8010,29.57,11111222 
COMPS,ioos:station:USF.COMPS:FHP:1,2019-06-03T19:54:00,28.1530,-82.8010,29.89,11111222 
COMPS,ioos:station:USF.COMPS:FHP:1,2019-06-03T20:54:00,28.1530,-82.8010,30.17,11111222 
COMPS,ioos:station:USF.COMPS:FHP:1,2019-06-03T21:54:00,28.1530,-82.8010,29.54,11111222 
COMPS,ioos:station:USF.COMPS:FHP:1,2019-06-03T22:54:00,28.1530,-82.8010,29.7,11111222 
COMPS,ioos:station:USF.COMPS:FHP:1,2019-06-03T23:54:00,28.1530,-82.8010,29.52,11111222 
COMPS,ioos:station:USF.COMPS:FHP:1,2019-06-04T00:54:00,28.1530,-82.8010,28.85,11111222 
COMPS,ioos:station:USF.COMPS:FHP:1,2019-06-04T01:54:00,28.1530,-82.8010,28.75,11111222 
COMPS,ioos:station:USF.COMPS:FHP:1,2019-06-04T02:54:00,28.1530,-82.8010,28.72,11111222 
COMPS,ioos:station:USF.COMPS:FHP:1,2019-06-04T03:54:00,28.1530,-82.8010,28.66,11111222 
COMPS,ioos:station:USF.COMPS:FHP:1,2019-06-04T04:54:00,28.1530,-82.8010,28.66,11111222 
COMPS,ioos:station:USF.COMPS:FHP:1,2019-06-04T05:54:00,28.1530,-82.8010,28.56,11111222 
COMPS,ioos:station:USF.COMPS:FHP:1,2019-06-04T06:54:00,28.1530,-82.8010,28.45,11111222 
COMPS,ioos:station:USF.COMPS:FHP:1,2019-06-04T07:54:00,28.1530,-82.8010,28.44,11111222 
COMPS,ioos:station:USF.COMPS:FHP:1,2019-06-04T08:54:00,28.1530,-82.8010,28.45,11111222 
COMPS,ioos:station:USF.COMPS:FHP:1,2019-06-04T09:54:00,28.1530,-82.8010,28.42,11111222 
COMPS,ioos:station:USF.COMPS:FHP:1,2019-06-04T10:54:00,28.1530,-82.8010,28.6,11111222 
COMPS,ioos:station:USF.COMPS:FHP:1,2019-06-04T11:54:00,28.1530,-82.8010,29.27,11111222 
COMPS,ioos:station:USF.COMPS:FHP:1,2019-06-04T12:54:00,28.1530,-82.8010,29.02,11111222 
COMPS,ioos:station:USF.COMPS:FHP:1,2019-06-04T13:54:00,28.1530,-82.8010,29.47,11111222 
COMPS,ioos:station:USF.COMPS:FHP:1,2019-06-04T14:54:00,28.1530,-82.8010,29.66,11111222 
COMPS,ioos:station:USF.COMPS:FHP:1,2019-06-04T15:54:00,28.1530,-82.8010,30.26,11111222 
COMPS,ioos:station:USF.COMPS:FHP:1,2019-06-04T16:54:00,28.1530,-82.8010,30.32,11111222 
COMPS,ioos:station:USF.COMPS:FHP:1,2019-06-04T17:54:00,28.1530,-82.8010,30.5,11111222 
COMPS,ioos:station:USF.COMPS:FHP:1,2019-06-04T18:54:00,28.1530,-82.8010,30.42,11111222 
COMPS,ioos:station:USF.COMPS:FHP:1,2019-06-04T19:54:00,28.1530,-82.8010,30.64,11111222 
COMPS,ioos:station:USF.COMPS:FHP:1,2019-06-04T20:54:00,28.1530,-82.8010,31.11,11111222 
COMPS,ioos:station:USF.COMPS:FHP:1,2019-06-04T21:54:00,28.1530,-82.8010,30.2,11111222 
COMPS,ioos:station:USF.COMPS:FHP:1,2019-06-04T22:54:00,28.1530,-82.8010,31.03,11111222 
COMPS,ioos:station:USF.COMPS:FHP:1,2019-06-04T23:54:00,28.1530,-82.8010,30.4,11111222 
COMPS,ioos:station:USF.COMPS:FHP:1,2019-06-05T00:54:00,28.1530,-82.8010,29.94,11111222 
COMPS,ioos:station:USF.COMPS:FHP:1,2019-06-05T01:54:00,28.1530,-82.8010,28.92,11111222 
COMPS,ioos:station:USF.COMPS:FHP:1,2019-06-05T02:54:00,28.1530,-82.8010,27.72,11111222 
COMPS,ioos:station:USF.COMPS:FHP:1,2019-06-05T03:54:00,28.1530,-82.8010,27.67,11111222 
COMPS,ioos:station:USF.COMPS:FHP:1,2019-06-05T04:54:00,28.1530,-82.8010,26.73,11111222 
COMPS,ioos:station:USF.COMPS:FHP:1,2019-06-05T05:54:00,28.1530,-82.8010,26.12,11111222 
COMPS,ioos:station:USF.COMPS:FHP:1,2019-06-05T06:54:00,28.1530,-82.8010,25.95,11111222 
COMPS,ioos:station:USF.COMPS:FHP:1,2019-06-05T07:54:00,28.1530,-82.8010,25.86,11111222 
COMPS,ioos:station:USF.COMPS:FHP:1,2019-06-05T08:54:00,28.1530,-82.8010,25.49,11111222 
COMPS,ioos:station:USF.COMPS:FHP:1,2019-06-05T09:54:00,28.1530,-82.8010,25.64,11111222 
COMPS,ioos:station:USF.COMPS:FHP:1,2019-06-05T10:54:00,28.1530,-82.8010,25.78,11111222 
COMPS,ioos:station:USF.COMPS:FHP:1,2019-06-05T11:54:00,28.1530,-82.8010,26.13,11111222 
COMPS,ioos:station:USF.COMPS:FHP:1,2019-06-05T12:54:00,28.1530,-82.8010,27.11,11111222 
COMPS,ioos:station:USF.COMPS:FHP:1,2019-06-05T13:54:00,28.1530,-82.8010,28.07,11111222 
COMPS,ioos:station:USF.COMPS:FHP:1,2019-06-05T14:54:00,28.1530,-82.8010,28.85,11111222 
COMPS,ioos:station:USF.COMPS:FHP:1,2019-06-05T15:54:00,28.1530,-82.8010,28.55,11111222 
COMPS,ioos:station:USF.COMPS:FHP:1,2019-06-05T16:54:00,28.1530,-82.8010,28.46,11111222 
COMPS,ioos:station:USF.COMPS:FHP:1,2019-06-05T17:54:00,28.1530,-82.8010,28.8,11111222 
COMPS,ioos:station:USF.COMPS:FHP:1,2019-06-05T18:54:00,28.1530,-82.8010,29.13,11111222 
COMPS,ioos:station:USF.COMPS:FHP:1,2019-06-05T19:54:00,28.1530,-82.8010,29.52,11111222 
COMPS,ioos:station:USF.COMPS:FHP:1,2019-06-05T20:54:00,28.1530,-82.8010,29.83,11111222 
COMPS,ioos:station:USF.COMPS:FHP:1,2019-06-05T21:54:00,28.1530,-82.8010,30.03,11111222 
COMPS,ioos:station:USF.COMPS:FHP:1,2019-06-05T22:54:00,28.1530,-82.8010,30.11,11111222 
COMPS,ioos:station:USF.COMPS:FHP:1,2019-06-05T23:54:00,28.1530,-82.8010,29.93,11111222 
COMPS,ioos:station:USF.COMPS:FHP:1,2019-06-06T00:54:00,28.1530,-82.8010,29.4,11111222 
COMPS,ioos:station:USF.COMPS:FHP:1,2019-06-06T01:54:00,28.1530,-82.8010,28.94,11111222 
COMPS,ioos:station:USF.COMPS:FHP:1,2019-06-06T02:54:00,28.1530,-82.8010,28.87,11111222 
COMPS,ioos:station:USF.COMPS:FHP:1,2019-06-06T03:54:00,28.1530,-82.8010,27.02,11111222 
COMPS,ioos:station:USF.COMPS:FHP:1,2019-06-06T04:54:00,28.1530,-82.8010,26.68,11111222 
COMPS,ioos:station:USF.COMPS:FHP:1,2019-06-06T05:54:00,28.1530,-82.8010,26.77,11111222 
COMPS,ioos:station:USF.COMPS:FHP:1,2019-06-06T06:54:00,28.1530,-82.8010,27.04,11111222 
COMPS,ioos:station:USF.COMPS:FHP:1,2019-06-06T07:54:00,28.1530,-82.8010,26.83,11111222 
COMPS,ioos:station:USF.COMPS:FHP:1,2019-06-06T08:54:00,28.1530,-82.8010,26.44,11111222 
COMPS,ioos:station:USF.COMPS:FHP:1,2019-06-06T09:54:00,28.1530,-82.8010,26.26,11111222 
COMPS,ioos:station:USF.COMPS:FHP:1,2019-06-06T10:54:00,28.1530,-82.8010,25.93,11111222 
COMPS,ioos:station:USF.COMPS:FHP:1,2019-06-06T11:54:00,28.1530,-82.8010,26.44,11111222 
COMPS,ioos:station:USF.COMPS:FHP:1,2019-06-06T12:54:00,28.1530,-82.8010,28.08,11111222 
COMPS,ioos:station:USF.COMPS:FHP:1,2019-06-06T13:54:00,28.1530,-82.8010,28.7,11111222 
COMPS,ioos:station:USF.COMPS:FHP:1,2019-06-06T14:54:00,28.1530,-82.8010,29.3,11111222 
COMPS,ioos:station:USF.COMPS:FHP:1,2019-06-06T15:54:00,28.1530,-82.8010,29.27,11111222 
COMPS,ioos:station:USF.COMPS:FHP:1,2019-06-06T16:54:00,28.1530,-82.8010,29.33,11111222 
COMPS,ioos:station:USF.COMPS:FHP:1,2019-06-06T17:54:00,28.1530,-82.8010,29.25,11111222 
COMPS,ioos:station:USF.COMPS:FHP:1,2019-06-06T18:54:00,28.1530,-82.8010,29.34,11111222 
COMPS,ioos:station:USF.COMPS:FHP:1,2019-06-06T19:54:00,28.1530,-82.8010,29.44,11111222 
COMPS,ioos:station:USF.COMPS:FHP:1,2019-06-06T20:54:00,28.1530,-82.8010,29.49,11111222 
COMPS,ioos:station:USF.COMPS:FHP:1,2019-06-06T21:54:00,28.1530,-82.8010,29.41,11111222 
COMPS,ioos:station:USF.COMPS:FHP:1,2019-06-06T22:54:00,28.1530,-82.8010,29.21,11111222 
COMPS,ioos:station:USF.COMPS:FHP:1,2019-06-06T23:54:00,28.1530,-82.8010,29.19,11111222 
COMPS,ioos:station:USF.COMPS:FHP:1,2019-06-07T00:54:00,28.1530,-82.8010,29.25,11111222 
COMPS,ioos:station:USF.COMPS:FHP:1,2019-06-07T01:54:00,28.1530,-82.8010,29.38,11111222 
COMPS,ioos:station:USF.COMPS:FHP:1,2019-06-07T02:54:00,28.1530,-82.8010,29.25,11111222 
COMPS,ioos:station:USF.COMPS:FHP:1,2019-06-07T03:54:00,28.1530,-82.8010,28.71,11111222 
COMPS,ioos:station:USF.COMPS:FHP:1,2019-06-07T04:54:00,28.1530,-82.8010,27.99,11111222 
COMPS,ioos:station:USF.COMPS:FHP:1,2019-06-07T05:54:00,28.1530,-82.8010,27.8,11111222 
COMPS,ioos:station:USF.COMPS:FHP:1,2019-06-07T06:54:00,28.1530,-82.8010,27.48,11111222 
COMPS,ioos:station:USF.COMPS:FHP:1,2019-06-07T07:54:00,28.1530,-82.8010,27.7,11111222 
COMPS,ioos:station:USF.COMPS:FHP:1,2019-06-07T08:54:00,28.1530,-82.8010,28.27,11111222 
COMPS,ioos:station:USF.COMPS:FHP:1,2019-06-07T09:54:00,28.1530,-82.8010,27.22,11111222 
COMPS,ioos:station:USF.COMPS:FHP:1,2019-06-07T10:54:00,28.1530,-82.8010,27.35,11111222 
COMPS,ioos:station:USF.COMPS:FHP:1,2019-06-07T11:54:00,28.1530,-82.8010,27.2,11111222 
COMPS,ioos:station:USF.COMPS:FHP:1,2019-06-07T12:54:00,28.1530,-82.8010,27.68,11111222 
COMPS,ioos:station:USF.COMPS:FHP:1,2019-06-07T13:54:00,28.1530,-82.8010,29.15,11111222 
COMPS,ioos:station:USF.COMPS:FHP:1,2019-06-07T14:54:00,28.1530,-82.8010,29.27,11111222 
COMPS,ioos:station:USF.COMPS:FHP:1,2019-06-07T15:54:00,28.1530,-82.8010,29.31,11111222 
COMPS,ioos:station:USF.COMPS:FHP:1,2019-06-07T16:54:00,28.1530,-82.8010,29.48,11111222 
COMPS,ioos:station:USF.COMPS:FHP:1,2019-06-07T17:54:00,28.1530,-82.8010,29.45,11111222 
COMPS,ioos:station:USF.COMPS:FHP:1,2019-06-07T18:54:00,28.1530,-82.8010,29.48,11111222 
COMPS,ioos:station:USF.COMPS:FHP:1,2019-06-07T19:54:00,28.1530,-82.8010,29.32,11111222 
COMPS,ioos:station:USF.COMPS:FHP:1,2019-06-07T20:54:00,28.1530,-82.8010,29.4,11111222 
COMPS,ioos:station:USF.COMPS:FHP:1,2019-06-07T21:54:00,28.1530,-82.8010,29.42,11111222 
COMPS,ioos:station:USF.COMPS:FHP:1,2019-06-07T22:54:00,28.1530,-82.8010,29.33,11111222 
COMPS,ioos:station:USF.COMPS:FHP:1,2019-06-07T23:54:00,28.1530,-82.8010,29.3,11111222 
COMPS,ioos:station:USF.COMPS:FHP:1,2019-06-08T00:54:00,28.1530,-82.8010,29.32,11111222 
COMPS,ioos:station:USF.COMPS:FHP:1,2019-06-08T01:54:00,28.1530,-82.8010,29.28,11111222 
COMPS,ioos:station:USF.COMPS:FHP:1,2019-06-08T02:54:00,28.1530,-82.8010,29.3,11111222 
COMPS,ioos:station:USF.COMPS:FHP:1,2019-06-08T03:54:00,28.1530,-82.8010,29.28,11111222 
COMPS,ioos:station:USF.COMPS:FHP:1,2019-06-08T04:54:00,28.1530,-82.8010,29.08,11111222 
COMPS,ioos:station:USF.COMPS:FHP:1,2019-06-08T05:54:00,28.1530,-82.8010,28.81,11111222 
COMPS,ioos:station:USF.COMPS:FHP:1,2019-06-08T06:54:00,28.1530,-82.8010,28.96,11111222 
COMPS,ioos:station:USF.COMPS:FHP:1,2019-06-08T07:54:00,28.1530,-82.8010,29.27,11111222 
COMPS,ioos:station:USF.COMPS:FHP:1,2019-06-08T08:54:00,28.1530,-82.8010,29.11,11111222 
COMPS,ioos:station:USF.COMPS:FHP:1,2019-06-08T09:54:00,28.1530,-82.8010,29.12,11111222 
COMPS,ioos:station:USF.COMPS:FHP:1,2019-06-08T10:54:00,28.1530,-82.8010,29.15,11111222 
COMPS,ioos:station:USF.COMPS:FHP:1,2019-06-08T11:54:00,28.1530,-82.8010,26.84,11111222 
COMPS,ioos:station:USF.COMPS:FHP:1,2019-06-08T12:54:00,28.1530,-82.8010,26.0,11111222 
COMPS,ioos:station:USF.COMPS:FHP:1,2019-06-08T13:54:00,28.1530,-82.8010,24.5,11111222 
COMPS,ioos:station:USF.COMPS:FHP:1,2019-06-08T14:54:00,28.1530,-82.8010,24.14,11111222 
COMPS,ioos:station:USF.COMPS:FHP:1,2019-06-08T15:54:00,28.1530,-82.8010,25.21,11111222 
COMPS,ioos:station:USF.COMPS:FHP:1,2019-06-08T16:54:00,28.1530,-82.8010,25.91,11111222 
COMPS,ioos:station:USF.COMPS:FHP:1,2019-06-08T17:54:00,28.1530,-82.8010,25.62,11111222 
COMPS,ioos:station:USF.COMPS:FHP:1,2019-06-08T18:54:00,28.1530,-82.8010,27.88,11111222 
COMPS,ioos:station:USF.COMPS:FHP:1,2019-06-08T23:54:00,28.1530,-82.8010,29.0,11111222 
COMPS,ioos:station:USF.COMPS:FHP:1,2019-06-09T00:54:00,28.1530,-82.8010,23.7,11111222 
COMPS,ioos:station:USF.COMPS:FHP:1,2019-06-09T01:54:00,28.1530,-82.8010,24.64,11111222 
COMPS,ioos:station:USF.COMPS:FHP:1,2019-06-09T02:54:00,28.1530,-82.8010,24.27,11111222 
COMPS,ioos:station:USF.COMPS:FHP:1,2019-06-09T03:54:00,28.1530,-82.8010,24.73,11111222 
COMPS,ioos:station:USF.COMPS:FHP:1,2019-06-09T04:54:00,28.1530,-82.8010,25.77,11111222 
COMPS,ioos:station:USF.COMPS:FHP:1,2019-06-09T05:54:00,28.1530,-82.8010,25.94,11111222 
COMPS,ioos:station:USF.COMPS:FHP:1,2019-06-09T06:54:00,28.1530,-82.8010,25.69,11111222 
COMPS,ioos:station:USF.COMPS:FHP:1,2019-06-09T07:54:00,28.1530,-82.8010,26.88,11111222 
COMPS,ioos:station:USF.COMPS:FHP:1,2019-06-09T08:54:00,28.1530,-82.8010,27.52,11111222 
COMPS,ioos:station:USF.COMPS:FHP:1,2019-06-09T09:54:00,28.1530,-82.8010,28.6,11111222 
COMPS,ioos:station:USF.COMPS:FHP:1,2019-06-09T10:54:00,28.1530,-82.8010,26.7,11111222 
COMPS,ioos:station:USF.COMPS:FHP:1,2019-06-09T11:54:00,28.1530,-82.8010,27.02,11111222 
COMPS,ioos:station:USF.COMPS:FHP:1,2019-06-09T12:54:00,28.1530,-82.8010,26.73,11111222 
COMPS,ioos:station:USF.COMPS:FHP:1,2019-06-09T13:54:00,28.1530,-82.8010,26.77,11111222 
COMPS,ioos:station:USF.COMPS:FHP:1,2019-06-09T14:54:00,28.1530,-82.8010,27.77,11111222 
COMPS,ioos:station:USF.COMPS:FHP:1,2019-06-09T15:54:00,28.1530,-82.8010,29.06,11111222 
COMPS,ioos:station:USF.COMPS:FHP:1,2019-06-09T16:54:00,28.1530,-82.8010,29.02,11111222 
COMPS,ioos:station:USF.COMPS:FHP:1,2019-06-09T17:54:00,28.1530,-82.8010,27.84,11111222 
COMPS,ioos:station:USF.COMPS:FHP:1,2019-06-09T18:54:00,28.1530,-82.8010,28.7,11111222 
COMPS,ioos:station:USF.COMPS:FHP:1,2019-06-09T19:54:00,28.1530,-82.8010,29.1,11111222 
COMPS,ioos:station:USF.COMPS:FHP:1,2019-06-09T20:54:00,28.1530,-82.8010,29.23,11111222 
COMPS,ioos:station:USF.COMPS:FHP:1,2019-06-09T21:54:00,28.1530,-82.8010,25.57,11111222 
COMPS,ioos:station:USF.COMPS:FHP:1,2019-06-09T22:54:00,28.1530,-82.8010,27.23,11111222 
COMPS,ioos:station:USF.COMPS:FHP:1,2019-06-09T23:54:00,28.1530,-82.8010,26.37,11111222 
COMPS,ioos:station:USF.COMPS:FHP:1,2019-06-10T00:54:00,28.1530,-82.8010,24.51,11111222 
COMPS,ioos:station:USF.COMPS:FHP:1,2019-06-10T01:54:00,28.1530,-82.8010,23.61,11111222 
COMPS,ioos:station:USF.COMPS:FHP:1,2019-06-10T02:54:00,28.1530,-82.8010,23.84,11111222 
COMPS,ioos:station:USF.COMPS:FHP:1,2019-06-10T03:54:00,28.1530,-82.8010,24.12,11111222 
COMPS,ioos:station:USF.COMPS:FHP:1,2019-06-10T04:54:00,28.1530,-82.8010,24.34,11111222 
COMPS,ioos:station:USF.COMPS:FHP:1,2019-06-10T05:54:00,28.1530,-82.8010,24.48,11111222 
COMPS,ioos:station:USF.COMPS:FHP:1,2019-06-10T06:54:00,28.1530,-82.8010,24.56,11111222 
COMPS,ioos:station:USF.COMPS:FHP:1,2019-06-10T07:54:00,28.1530,-82.8010,24.84,11111222 
COMPS,ioos:station:USF.COMPS:FHP:1,2019-06-10T08:54:00,28.1530,-82.8010,24.91,11111222 
COMPS,ioos:station:USF.COMPS:FHP:1,2019-06-10T09:54:00,28.1530,-82.8010,24.67,11111222 
COMPS,ioos:station:USF.COMPS:FHP:1,2019-06-10T10:54:00,28.1530,-82.8010,25.04,11111222 
COMPS,ioos:station:USF.COMPS:FHP:1,2019-06-10T11:54:00,28.1530,-82.8010,25.18,11111222 
COMPS,ioos:station:USF.COMPS:FHP:1,2019-06-10T12:54:00,28.1530,-82.8010,26.25,11111222 
COMPS,ioos:station:USF.COMPS:FHP:1,2019-06-10T13:54:00,28.1530,-82.8010,22.99,11111222 
COMPS,ioos:station:USF.COMPS:FHP:1,2019-06-10T14:54:00,28.1530,-82.8010,23.0,11111222 
COMPS,ioos:station:USF.COMPS:FHP:1,2019-06-10T15:54:00,28.1530,-82.8010,22.88,11111222 
COMPS,ioos:station:USF.COMPS:FHP:1,2019-06-10T16:54:00,28.1530,-82.8010,24.66,11111222 
COMPS,ioos:station:USF.COMPS:FHP:1,2019-06-10T17:54:00,28.1530,-82.8010,23.84,11111222 
COMPS,ioos:station:USF.COMPS:FHP:1,2019-06-10T18:54:00,28.1530,-82.8010,24.52,11111222 
COMPS,ioos:station:USF.COMPS:FHP:1,2019-06-10T19:54:00,28.1530,-82.8010,27.56,11111222 
COMPS,ioos:station:USF.COMPS:FHP:1,2019-06-10T20:54:00,28.1530,-82.8010,27.59,11111222 
COMPS,ioos:station:USF.COMPS:FHP:1,2019-06-10T21:54:00,28.1530,-82.8010,27.89,11111222 
COMPS,ioos:station:USF.COMPS:FHP:1,2019-06-10T22:54:00,28.1530,-82.8010,27.86,11111222 
COMPS,ioos:station:USF.COMPS:FHP:1,2019-06-10T23:54:00,28.1530,-82.8010,27.84,11111222 
COMPS,ioos:station:USF.COMPS:FHP:1,2019-06-11T00:54:00,28.1530,-82.8010,27.83,11111222 
COMPS,ioos:station:USF.COMPS:FHP:1,2019-06-11T01:54:00,28.1530,-82.8010,27.86,11111222 
COMPS,ioos:station:USF.COMPS:FHP:1,2019-06-11T02:54:00,28.1530,-82.8010,28.08,11111222 
COMPS,ioos:station:USF.COMPS:FHP:1,2019-06-11T03:54:00,28.1530,-82.8010,27.96,11111222 
COMPS,ioos:station:USF.COMPS:FHP:1,2019-06-11T04:54:00,28.1530,-82.8010,26.59,11111222 
COMPS,ioos:station:USF.COMPS:FHP:1,2019-06-11T05:54:00,28.1530,-82.8010,26.51,11111222 
COMPS,ioos:station:USF.COMPS:FHP:1,2019-06-11T06:54:00,28.1530,-82.8010,27.95,11111222 
COMPS,ioos:station:USF.COMPS:FHP:1,2019-06-11T07:54:00,28.1530,-82.8010,27.88,11111222 
COMPS,ioos:station:USF.COMPS:FHP:1,2019-06-11T08:54:00,28.1530,-82.8010,27.98,11111222 
COMPS,ioos:station:USF.COMPS:FHP:1,2019-06-11T09:54:00,28.1530,-82.8010,25.05,11111222 
COMPS,ioos:station:USF.COMPS:FHP:1,2019-06-11T10:54:00,28.1530,-82.8010,26.05,11111222 
COMPS,ioos:station:USF.COMPS:FHP:1,2019-06-11T11:54:00,28.1530,-82.8010,27.04,11111222 
COMPS,ioos:station:USF.COMPS:FHP:1,2019-06-11T12:54:00,28.1530,-82.8010,27.38,11111222 
COMPS,ioos:station:USF.COMPS:FHP:1,2019-06-11T13:54:00,28.1530,-82.8010,27.47,11111222 
COMPS,ioos:station:USF.COMPS:FHP:1,2019-06-11T14:54:00,28.1530,-82.8010,27.83,11111222 
COMPS,ioos:station:USF.COMPS:FHP:1,2019-06-11T15:54:00,28.1530,-82.8010,27.98,11111222 
COMPS,ioos:station:USF.COMPS:FHP:1,2019-06-11T16:54:00,28.1530,-82.8010,27.53,11111222 
COMPS,ioos:station:USF.COMPS:FHP:1,2019-06-11T18:54:00,28.1530,-82.8010,28.51,11111222 
COMPS,ioos:station:USF.COMPS:FHP:1,2019-06-11T19:54:00,28.1530,-82.8010,28.49,11111222 
COMPS,ioos:station:USF.COMPS:FHP:1,2019-06-11T20:54:00,28.1530,-82.8010,28.57,11111222 
COMPS,ioos:station:USF.COMPS:FHP:1,2019-06-11T21:54:00,28.1530,-82.8010,28.3,11111222 
COMPS,ioos:station:USF.COMPS:FHP:1,2019-06-11T22:54:00,28.1530,-82.8010,28.42,11111222 
COMPS,ioos:station:USF.COMPS:FHP:1,2019-06-11T23:54:00,28.1530,-82.8010,28.39,11111222 
COMPS,ioos:station:USF.COMPS:FHP:1,2019-06-12T00:54:00,28.1530,-82.8010,28.31,11111222 
COMPS,ioos:station:USF.COMPS:FHP:1,2019-06-12T01:54:00,28.1530,-82.8010,28.24,11111222 
COMPS,ioos:station:USF.COMPS:FHP:1,2019-06-12T02:54:00,28.1530,-82.8010,27.74,11111222 
COMPS,ioos:station:USF.COMPS:FHP:1,2019-06-12T03:54:00,28.1530,-82.8010,28.0,11111222 
COMPS,ioos:station:USF.COMPS:FHP:1,2019-06-12T04:54:00,28.1530,-82.8010,27.03,11111222 
COMPS,ioos:station:USF.COMPS:FHP:1,2019-06-12T05:54:00,28.1530,-82.8010,26.98,11111222 
COMPS,ioos:station:USF.COMPS:FHP:1,2019-06-12T06:54:00,28.1530,-82.8010,28.16,11111222 
COMPS,ioos:station:USF.COMPS:FHP:1,2019-06-12T07:54:00,28.1530,-82.8010,28.21,11111222 
COMPS,ioos:station:USF.COMPS:FHP:1,2019-06-12T08:54:00,28.1530,-82.8010,28.01,11111222 
COMPS,ioos:station:USF.COMPS:FHP:1,2019-06-12T09:54:00,28.1530,-82.8010,28.11,11111222 
COMPS,ioos:station:USF.COMPS:FHP:1,2019-06-12T10:54:00,28.1530,-82.8010,28.14,11111222 
COMPS,ioos:station:USF.COMPS:FHP:1,2019-06-12T11:54:00,28.1530,-82.8010,27.25,11111222 
COMPS,ioos:station:USF.COMPS:FHP:1,2019-06-12T12:54:00,28.1530,-82.8010,28.26,11111222 